United States

Ashburn, VA Weather Archive

Below you will find the last 24 hours of weather readings for Ashburn VA

Ashburn VA Today's Weather Data

Observed at: Ashburn, VA

Hour Observerd Temp Pressure Visibility Humidity Dew Point Wind
07:00 Overcast 45°F (7.2°C) 101.59 kPa 10 miles 76% 37.4°F (3°C) 4 mph SW 218.75°
06:00 Overcast 45°F (7.2°C) 101.59 kPa 10 miles 76% 37.4°F (3°C) 5 mph N 5°
05:00 Overcast 45°F (7.2°C) 101.59 kPa 10 miles 71% 35.6°F (2°C) 4 mph NW 308.75°
04:00 Overcast 43°F (6.1°C) 101.59 kPa 10 miles 81% 37.4°F (3°C) 4 mph NW 308.75°
03:00 Fair 41°F (5°C) 101.59 kPa 10 miles 87% 37.4°F (3°C) 3 mph W 263.75°
02:00 Fair 41°F (5°C) 101.59 kPa 10 miles 87% 37.4°F (3°C) 3 mph W 263.75°
01:00 Fair 41°F (5°C) 101.59 kPa 10 miles 81% 35.6°F (2°C) 5 mph N 5°
00:00 Fair 41°F (5°C) 101.59 kPa 10 miles 76% 33.8°F (1°C) 4 mph N 5°
23:00 Fair 43°F (6.1°C) 101.59 kPa 10 miles 81% 37.4°F (3°C) 5 mph NW 308.75°20 mph
22:00 Fair 43°F (6.1°C) 101.59 kPa 10 miles 81% 37.4°F (3°C) 5 mph NW 308.75°
21:00 Fair 46°F (7.8°C) 101.59 kPa 10 miles 71% 37.4°F (3°C) 4 mph SW 218.75°
20:00 Mostly Cloudy 54°F (12.2°C) 101.59 kPa 10 miles 51% 35.6°F (2°C) 4 mph NW 308.75°17 mph
19:00 Overcast 55°F (12.8°C) 101.59 kPa 10 miles 44% 33.8°F (1°C) 8 mph NW 308.75°20 mph
18:00 Fair 55°F (12.8°C) 101.59 kPa 10 miles 47% 35.6°F (2°C) 15 mph NW 308.75°21 mph
17:00 Partly Cloudy 55°F (12.8°C) 98.21 kPa 10 miles 51% 37.4°F (3°C) 17 mph W 263.75°24 mph
16:00 Mostly Cloudy 54°F (12.2°C) 98.21 kPa 10 miles 54% 37.4°F (3°C) 11 mph NW 308.75°16 mph
15:00 Mostly Cloudy 54°F (12.2°C) 98.21 kPa 10 miles 54% 37.4°F (3°C) 11 mph NW 308.75°16 mph
14:00 Mostly Cloudy 55°F (12.8°C) 98.21 kPa 10 miles 51% 37.4°F (3°C) 18 mph N 5°23 mph
13:00 Thunderstorm and Breezy 54°F (12.2°C) 98.21 kPa 10 miles 58% 39.2°F (4°C) 24 mph NW 308.75°36 mph
12:00 Partly Cloudy 52°F (11.1°C) 98.21 kPa 10 miles 58% 37.4°F (3°C) 13 mph N 5°20 mph
11:00 Overcast 52°F (11.1°C) 98.21 kPa 10 miles 54% 35.6°F (2°C) 15 mph NW 308.75°26 mph
10:00 Mostly Cloudy 50°F (10°C) 98.21 kPa 10 miles 71% 41°F (5°C) 16 mph NW 308.75°24 mph
09:00 Overcast 43°F (6.1°C) 98.21 kPa 10 miles 87% 39.2°F (4°C) 5 mph NW 308.75°21 mph
08:00 Overcast 37°F (2.8°C) 98.21 kPa 10 miles 100% 37.4°F (3°C) 4 mph N 5°


Home | Earthquakes | About Us | Contact Us | Privacy

Copyright Friendly Forecast 2012 - 2021